Location: Bernadets
(43.3537°N, 0.3167°E)
Time: 03:43:36
(UTC+00:00)

Meteor 1-21 Rocket - Pass Details

Date: 24 October 2021
Orbit: 834 x 906 km, 81.2° (Epoch: 27 November)

Event Time Altitude Azimuth Distance (km) Brightness Sun altitude
Rises 17:26:53 0° 350° (N) 3,517 7.4 -5.3°
Reaches altitude 10° 17:29:20 10° 350° (N) 2,580 6.7 -5.8°
Maximum altitude 17:35:15 87° 79° (E) 912 4.4 -6.8°
Drops below altitude 10° 17:41:10 10° 170° (S) 2,581 6.7 -7.9°
Sets 17:43:37 0° 171° (S) 3,517 7.4 -8.3°
